Powrót do katalogu

NOAA 16 DEB

AktywnySSO
NORAD 41364·DEBRIS·🇺🇸 United States

Wystrzelony Sep 21, 2000 z Vandenberg Space Force Base

Loading…

Następne Przeloty (najbliższe 24 godziny)

TLE

ŚwieżeSource: Space-Track

Epoka: Sep 14, 2026, 14:14 UTC

1 41364U 00055JH  26257.59352959  .00002618  00000-0  10029-2 0  9998
2 41364  98.6157 311.8048 0013326 225.7173 134.2917 14.31393565548658

Śledź NOAA 16 DEB w czasie rzeczywistym z AllMySat

Download on the App Store